Flag for Canada Weather past 2 weeks in Chilliwack, British Columbia, Canada

Now
38 °F

Chilly.


Feels Like: 38 °F
Forecast: 31 / 40 °F
Wind: 1 mph from Northeast

Location: Agassiz

Current Time: Dec 25, 2014 at 10:34:49 PM

Latest Report: Dec 25, 2014 at 10:00 PM


Visibility: N/A

Pressure: 30.29 "Hg

Humidity: 98%

Dew point: 37 °F

Location of ChilliwackLocation

Historic Weather in Chilliwack — Graph

°F

Chilliwack temperature yesterday

Maximum temperature yesterday: 43 °F (at 2:00 PM)
Minimum temperature yesterday: 38 °F (at 8:00 AM)
Average temperature yesterday: 41 °F

Past Weeks' High & Low Weather Summary

 TemperatureHumidityPressure
High54 °F (Dec 21, 12:00 AM)100% (Dec 12, 6:00 AM)30.39 "Hg (Dec 12, 6:00 AM)
Low37 °F (Dec 25, 7:00 PM)49% (Dec 15, 4:00 AM)29.23 "Hg (Dec 11, 12:00 PM)
Average44 °F84%29.91 "Hg
* Reported Dec 10 9:00 PM — Dec 25 9:00 PM, Chilliwack, Weather by CustomWeather, © 2014

Note: Actual official high and low records may vary slightly from our data, if they occured in-between our weather recording intervals... More about our weather records

Advertising

Chilliwack weather history for previous 24 hours

 ConditionsComfort  
Time TempWeatherWind HumidityBarometerVisibility
9:00 PM
Dec 25
38 °FChilly.1 mph98%30.29 "HgN/A
8:00 PM37 °FChilly.2 mph98%30.27 "HgN/A
7:00 PM37 °FChilly.1 mph97%30.27 "HgN/A
6:00 PM39 °FChilly.1 mph97%30.25 "HgN/A
5:00 PM39 °FChilly.1 mph96%30.24 "HgN/A
4:00 PM41 °FQuite cool.1 mph94%30.24 "HgN/A
3:00 PM42 °FQuite cool.1 mph88%30.23 "HgN/A
2:00 PM42 °FQuite cool.2 mph86%30.20 "HgN/A
1:00 PM41 °FQuite cool.2 mph87%30.19 "HgN/A
12:00 PM41 °FQuite cool.2 mph94%30.19 "HgN/A
11:00 AM41 °FQuite cool.No wind99%30.19 "HgN/A
10:00 AM40 °FQuite cool.No wind99%30.18 "HgN/A
9:00 AM39 °FChilly.No wind99%30.15 "HgN/A
8:00 AM39 °FChilly.No wind98%30.14 "HgN/A
7:00 AM39 °FChilly.1 mph99%30.12 "HgN/A
6:00 AM39 °FChilly.1 mph98%30.11 "HgN/A
5:00 AM39 °FChilly.1 mph98%30.10 "HgN/A
4:00 AM39 °FChilly.1 mph99%30.09 "HgN/A
3:00 AM39 °FChilly.1 mph98%30.08 "HgN/A
2:00 AM40 °FChilly.1 mph98%30.06 "HgN/A
12:00 AM40 °FChilly.1 mph98%30.02 "HgN/A
11:00 PM
Dec 24
40 °FChilly.1 mph98%30.01 "HgN/A
10:00 PM39 °FChilly.No wind97%30.01 "HgN/A
Weather by CustomWeather, © 2014

See weather overviewHow to use our weather pages